This is the latest recevied weather packets stored in our database for station/object DG3RAP-11. If no packets are shown the sender has not sent any weather packets the latest 10 day(s).
| Time | Temp. | Humidity | Pressure | Rain* | Wind** | Luminosity | Snow |
|---|---|---|---|---|---|---|---|
| 1777642023 | 20.56° C | 34% | 1025.8 hPa | 0 mm | - | - | - |
| 1777641483 | 20.56° C | 34% | 1025.7 hPa | 0 mm | - | - | - |
| 1777640944 | 20° C | 33% | 1026.1 hPa | 0 mm | - | - | - |
| 1777640404 | 19.44° C | 34% | 1026.4 hPa | 0 mm | - | - | - |
| 1777640043 | 19.44° C | 34% | 1026.4 hPa | 0 mm | - | - | - |
| 1777639503 | 19.44° C | 34% | 1026.2 hPa | 0 mm | - | - | - |
| 1777638963 | 18.33° C | 36% | 1026.5 hPa | 0 mm | - | - | - |
| 1777638424 | 19.44° C | 34% | 1026.6 hPa | 0 mm | - | - | - |
| 1777637883 | 18.89° C | 35% | 1026.6 hPa | 0 mm | - | - | - |
| 1777637343 | 19.44° C | 33% | 1026.6 hPa | 0 mm | - | - | - |
| 1777636803 | 18.89° C | 35% | 1026.7 hPa | 0 mm | - | - | - |
| 1777636443 | 18.33° C | 36% | 1026.8 hPa | 0 mm | - | - | - |
| 1777635903 | 18.33° C | 35% | 1026.9 hPa | 0 mm | - | - | - |
| 1777635363 | 18.33° C | 35% | 1027 hPa | 0 mm | - | - | - |
| 1777634823 | 18.33° C | 36% | 1026.9 hPa | 0 mm | - | - | - |
| 1777634284 | 17.22° C | 38% | 1027.1 hPa | 0 mm | - | - | - |
| 1777633743 | 17.78° C | 35% | 1027.1 hPa | 0 mm | - | - | - |
| 1777633203 | 16.67° C | 38% | 1027.3 hPa | 0 mm | - | - | - |
| 1777632843 | 17.22° C | 37% | 1027.2 hPa | 0 mm | - | - | - |
| 1777632304 | 16.67° C | 37% | 1027.5 hPa | 0 mm | - | - | - |
| 1777631763 | 17.22° C | 37% | 1027.4 hPa | 0 mm | - | - | - |
| 1777631224 | 16.11° C | 39% | 1027.4 hPa | 0 mm | - | - | - |
| 1777630683 | 16.67° C | 38% | 1027.5 hPa | 0 mm | - | - | - |
| 1777630143 | 15.56° C | 39% | 1027.3 hPa | 0 mm | - | - | - |
| 1777629603 | 16.11° C | 37% | 1027.6 hPa | 0 mm | - | - | - |
* Rain latest hour (hover to see other rain measurements)
** Current wind speed in m/s (hover to see current wind gust speed)